Location: Complexul Astronomic Baia Mare
(47.6577°N, 23.5639°E)
Time: 06:44:04
(UTC+03:00)

ISS - Pass Details

Date: 16 May 2017
Orbit: 402 x 408 km, 51.6° (Epoch: 29 May)

Event Time Altitude Azimuth Distance (km) Brightness Sun altitude
Exits shadow 01:58:34 13° 85° (E) 1,320 -1.1 -22.8°
Drops below altitude 10° 01:58:59 10° 81° (E) 1,466 -0.8 -22.7°
Sets 02:01:13 0° 70° (ENE) 2,328 0.4 -22.7°
